Flag for U.S.A. Weather past 2 weeks in Pasadena, Texas, U.S.A.

Now
68 °F

Mostly cloudy.


Feels Like: 68 °F
Forecast: 75 / 86 °F
Wind: 9 mph from Northwest

Location: Houston / Ellington

Current Time: Apr 25, 2015 at 9:56:44 AM

Latest Report: Apr 25, 2015 at 8:50 AM


Visibility: 7 mi

Pressure: 29.84 "Hg

Humidity: 88%

Dew point: 64 °F

Location of PasadenaLocation

Historic Weather in Pasadena — Graph

°F

Pasadena temperature yesterday

Maximum temperature yesterday: 84 °F (at 1:50 PM)
Minimum temperature yesterday: 73 °F (at 2:50 AM)
Average temperature yesterday: 77 °F

Past Weeks' High & Low Weather Summary

 TemperatureHumidityPressure
High86 °F (Apr 13, 4:50 PM)100% (Apr 10, 8:50 AM)30.12 "Hg (Apr 10, 8:50 AM)
Low61 °F (Apr 21, 6:50 AM)31% (Apr 20, 2:50 PM)28.75 "Hg (Apr 24, 7:50 PM)
Average73 °F83%29.93 "Hg
* Reported Apr 10 8:50 AM — Apr 25 8:20 AM, Pasadena, Weather by CustomWeather, © 2015

Note: Actual official high and low records may vary slightly from our data, if they occured in-between our weather recording intervals... More about our weather records

Advertising

Pasadena weather history for previous 24 hours

 ConditionsComfort  
Time TempWeatherWind HumidityBarometerVisibility
8:20 AM
Sat, Apr 25
73 °FThunderstorms. Fog.21 mph89%29.84 "Hg4 mi
7:50 AM75 °FThunderstorms. Fog.6 mph94%29.80 "Hg4 mi
6:50 AM75 °FFog.No wind94%29.80 "Hg4 mi
5:50 AM75 °FFog.5 mph94%29.75 "Hg6 mi
4:50 AM75 °FFog.6 mph94%29.68 "Hg6 mi
2:50 AM77 °FFog.16 mph94%29.80 "Hg6 mi
1:50 AM77 °FFog.9 mph94%29.79 "Hg6 mi
12:50 AM77 °FFog.7 mph94%29.80 "Hg6 mi
11:50 PM
Fri, Apr 24
77 °FFog.8 mph94%29.82 "Hg6 mi
10:50 PM77 °FThunderstorms. Fog.8 mph94%29.76 "Hg5 mi
9:50 PM77 °FFog.8 mph94%29.78 "Hg6 mi
8:50 PM77 °FFog.7 mph94%29.76 "Hg5 mi
7:50 PM79 °FLight rain. Mostly cloudy.7 mph94%28.75 "Hg5 mi
5:50 PM81 °FBroken clouds.8 mph89%29.78 "Hg7 mi
4:50 PM81 °FBroken clouds.8 mph89%29.76 "Hg7 mi
3:50 PM84 °FPartly sunny.15 mph79%29.81 "Hg7 mi
2:50 PM84 °FPartly sunny.15 mph79%29.83 "Hg7 mi
1:50 PM84 °FPartly sunny.15 mph79%29.84 "Hg7 mi
9:50 AM77 °FFog.6 mph94%29.92 "Hg3 mi
Weather by CustomWeather, © 2015

See weather overviewHow to use our weather pages